User: anonymous   Login
Location: Stigler
(35.2540°N, 95.1230°W)
Time: 13:18:04
(UTC-05:00)
Language:

Cosmos 1805 - Orbit

View from above orbital plane
View from above orbital plane
View from above satellite
View from above satellite

Ground track
Ground track

The orbit data is extracted from the following two-line orbital elements,

1 17191U 86097A   15116.86566373  .00003668  00000-0  22631-3 0  9997
2 17191 082.4734 079.0154 0003864 263.1732 096.9058 15.09645724545510
Epoch (UTC): 26 April 2015 20:46:33
Eccentricity: 0.0003864
inclination: 82.4734°
perigee height: 534 km
apogee height: 540 km
right ascension of ascending node: 79.0154°
argument of perigee: 263.1732°
revolutions per day: 15.09645724
mean anomaly at epoch: 96.9058°
orbit number at epoch: 54551

The dashed part of the orbit path shows where the satellite is in the earth's shadow,  

DLR